Printer-friendly version

IAU Minor Planet Center

Minor Planet Center

MPEC 2005-T63 : 2005 TE49

The following Minor Planet Electronic Circular may be linked-to from your own Web pages, but must not otherwise be redistributed electronically.


Read MPEC 2005-T62 Read MPEC 2005-T64


M.P.E.C. 2005-T63                                Issued 2005 Oct. 11, 02:15 UT

     The Minor Planet Electronic Circulars contain information on unusual
         minor planets and routine data on comets.  They are published
   on behalf of Commission 20 of the International Astronomical Union by the
          Minor Planet Center, Smithsonian Astrophysical Observatory,
                          Cambridge, MA 02138, U.S.A.

                  Supported in part by the Brinson Foundation
             Prepared using the Tamkin Foundation Computer Network

                              MPC@CFA.HARVARD.EDU
          URL http://cfa-www.harvard.edu/iau/mpc.html  ISSN 1523-6714

                                   2005 TE49

Observations:
     K05T49E*tC2005 10 07.22370 00 50 21.67 +07 57 28.0          20.8 V ET063691
     K05T49E tC2005 10 07.24108 00 50 11.85 +07 55 08.2          20.7 V ET063691
     K05T49E tC2005 10 07.43928 00 48 14.46 +07 27 03.5          20.4 V ET063291
     K05T49E tC2005 10 07.44323 00 48 11.98 +07 26 27.7          20.7 V ET063291
     K05T49E tC2005 10 07.44749 00 48 09.38 +07 25 48.2          20.4 V ET063291
     K05T49E tC2005 10 08.28514 00 39 58.98 +05 11 21.5          20.4 V ET063291
     K05T49E tC2005 10 08.28918 00 39 56.04 +05 10 38.6          20.6 V ET063291
     K05T49E tC2005 10 08.29580 00 39 51.02 +05 09 25.5          20.0 V ET063291
     K05T49E  C2005 10 10.87975 23 59 02.72 -06 03 02.5                 ET063J95
     K05T49E  C2005 10 10.88388 23 58 56.75 -06 04 32.5                 ET063J95
     K05T49E WC2005 10 10.88857 23 58 50.04 -06 06 14.2          19.2 R ET063J95

Observer details:
291 LPL/Spacewatch II.  Observer J. V. Scotti.  Measurers A. S. Descour,
    M. Block.  1.8-m f/2.7 reflector + CCD.
691 Steward Observatory, Kitt Peak.  Observers M. T. Read, S. A. Radaelli.
    Measurer M. T. Read.  0.9-m f/3 reflector + CCD.
J95 Great Shefford.  Observer P. Birtwhistle.  0.40-m f/6.0 Schmidt-Cassegrain
    + CCD.

Orbital elements:
2005 TE49
Epoch 2005 Sept. 27.0 TT = JDT 2453640.5                MPC
M 262.21059              (2000.0)            P               Q
n   1.07028712     Peri.  304.83782     -0.76645505     -0.64192627
a   0.9465332      Node   195.26533     +0.61306616     -0.72100450
e   0.3627004      Incl.    4.75988     +0.19156341     -0.26092752
P   0.92           H   26.9           G   0.15
From 9 observations 2005 Oct. 7-10.

Ephemeris:
2005 TE49                a,e,i = 0.95, 0.36, 5                   q = 0.6032
Date    TT    R. A. (2000) Decl.     Delta      r     Elong.  Phase     V
2005 10 07    00 52.16   +08 28.7    0.0473   1.047   176.9     2.9    20.7
2005 10 08    00 43.01   +06 02.0    0.0420   1.041   177.2     2.7    20.4
2005 10 09    00 31.41   +02 53.2    0.0369   1.035   172.6     7.1    20.3
2005 10 10    00 16.34   -01 14.3    0.0321   1.030   166.3    13.3    20.3
2005 10 11    23 56.21   -06 43.1    0.0277   1.024   158.0    21.4    20.2
2005 10 12    23 28.49   -13 57.9    0.0240   1.018   147.2    32.1    20.2
2005 10 13    22 49.38   -23 07.0    0.0212   1.012   133.3    45.8    20.3
2005 10 14    21 54.26   -33 15.9    0.0198   1.006   116.7    62.3    20.6
2005 10 15    20 41.74   -41 55.7    0.0200   1.001    99.1    79.7    21.2
2005 10 16    19 21.37   -46 42.7    0.0219   0.994    83.2    95.6    22.0
2005 10 17    18 10.23   -47 41.7    0.0249   0.988    70.3   108.4    22.9

Timothy B. Spahr             (C) Copyright 2005 MPC           M.P.E.C. 2005-T63

Read MPEC 2005-T62 Read MPEC 2005-T64


Our Web policy. Index to the CBAT/MPC/ICQ pages.


Valid HTML 4.01!